sat.trackr.live / text

‹ back to catalog

AMOS-3

NORAD 32794 · 2008-022A

PAYLOAD ACTIVE UNKNOWN

§ Identity

Operator
Country
ISRA
Launch date
2008-04-28
Launch site
TYMSC
Launch vehicle
Mass (kg)
RCS (m²)
42.97

Purposes: comms

External: N2YO · Heavens-Above · Gunter

§ Orbital elements

Epoch: 2026-09-20T00:32:21.630048Z

Period
1,436.08 min
Inclination
0.6924°
Eccentricity
0.0002120
Mean motion
1.00272854 rev/d
Perigee alt
35,777.4 km
Apogee alt
35,795.2 km
Semi-major
42,164.4 km
B*
0.0000e+0
RAAN
84.6370°
Arg perigee
50.1774°
Mean anomaly
310.2245°
Rev number
8,328

§ Raw data

AMOS-31 32794U 08022A   26263.02247257 -.00000121  00000+0  00000+0 0  99982 32794   0.6924  84.6370 0002120  50.1774 310.2245  1.00272854 83282

JSON: /api/v1/satellites/32794 · /tle

For live sub-satellite position, see the globe view (requires WebGL).

§ Visibility from observer

Set your observer location to see the next 7 days of passes ≥ 10°. The values pass through the URL so the page stays shareable.

No JS? Fill the form by hand. The geolocation button needs JavaScript.